Location: Indian Hills
(32.9760°N, 85.9450°W)
Time: 15:08:45
(UTC+00:00)

Cosmos 1241 Rocket - Pass Details

Date: 09 December 2019
Orbit: 943 x 1005 km, 65.8° (Epoch: 28 January)

Event Time Altitude Azimuth Distance (km) Brightness Sun altitude
Rises 00:39:35 0° 203° (SSW) 3,683 8.0 -25.0°
Reaches altitude 10° 00:42:09 10° 203° (SSW) 2,729 7.2 -25.6°
Maximum altitude 00:48:33 84° 115° (ESE) 980 4.3 -26.9°
Enters shadow 00:49:36 64° 37° (NE) 1,066 4.4 -27.1°
